Location: Cactus School
(34.5700°N, 118.0931°W)
Time: 08:19:40
(UTC-08:00)

A-11 Canister half - Pass Details

Date: 20 November 2019
Orbit: 1515 x 1685 km, 47.2° (Epoch: 08 December)

Event Time Altitude Azimuth Distance (km) Brightness Sun altitude
Rises 19:34:16 0° 279° (W) 4,910 12.6 -34.6°
Reaches altitude 10° 19:37:44 10° 287° (WNW) 3,935 11.8 -35.4°
Maximum altitude 19:47:08 41° 355° (N) 2,304 9.8 -37.3°
Enters shadow 19:48:01 40° 6° (N) 2,323 9.7 -37.5°
